GFSGBSN_prec_cloud_003.txt.gz
Cloud_Cover
100 100 100 100 100 100 100 100 100 100 100 100 100 100 100 100 100 100 100 78 51 65 41 51 5 3 2 46 32 19 72 88 74 92 98 11 8 4 2 0 0 0 0 0 0 0 0
100 100 100 100 100 100 100 100 100 100 100 100 100 100 100 100 100 100 100 100 100 85 78 32 4 24 0 0 0 0 1 0 0 1 0 1 0 0 0 0 0 0 0 0 0 0 0
100 100 100 100 100 100 100 100 100 100 100 100 100 100 100 100 100 81 79 81 34 4 0 0 0 0 0 0 0 0 0 0 0 0 0 0 0 0 0 0 0 0 0 0 0 0 0
100 100 100 100 100 100 100 100 100 100 100 100 99 96 100 89 9 5 1 0 0 0 0 0 3 0 0 0 0 0 0 0 0 0 0 0 0 0 0 0 0 0 0 0 0 0 0
100 100 100 100 100 100 100 100 100 100 100 100 69 5 32 4 0 0 0 0 0 0 0 26 7 0 0 0 0 0 0 0 0 0 0 0 0 0 0 0 0 0 0 0 0 0 0
100 100 100 100 100 100 100 100 100 100 98 19 5 1 0 0 0 0 0 0 0 0 0 0 0 0 0 0 0 0 0 0 0 0 0 0 0 0 0 0 0 0 0 0 0 0 0
100 100 100 100 100 100 53 100 20 5 5 2 0 1 5 0 0 0 0 0 0 0 0 0 0 0 0 0 0 0 0 0 0 0 0 0 0 0 0 0 0 0 0 0 0 0 0
100 100 100 100 100 100 100 97 100 100 1 0 0 2 0 0 0 0 0 0 0 0 0 0 0 0 0 0 0 0 0 0 0 0 0 0 0 0 0 0 0 0 0 0 0 0 0
100 100 100 100 100 100 17 24 100 85 0 0 0 0 0 0 0 0 0 0 0 0 0 0 0 0 0 0 0 0 0 0 0 0 0 0 0 0 0 0 0 0 0 0 0 0 0
96 100 100 100 100 67 96 5 4 3 0 0 0 0 0 0 0 0 0 0 0 0 0 0 0 2 6 0 0 0 0 0 0 0 0 0 0 0 0 0 0 0 0 0 0 3 0
100 100 100 100 100 100 25 5 5 0 0 5 3 0 0 0 0 0 0 0 0 0 0 0 0 0 0 5 0 0 0 0 0 0 0 0 0 0 0 0 0 4 0 0 0 0 5
100 100 100 91 55 4 5 5 3 0 5 25 1 0 0 0 0 0 0 0 0 0 2 0 0 0 0 3 5 0 0 0 0 0 0 0 0 0 0 0 5 0 1 0 2 1 1
59 100 98 15 5 5 5 3 5 4 5 5 0 0 14 0 0 0 0 0 0 2 0 0 0 0 0 0 0 0 0 0 0 0 0 0 0 0 3 0 2 0 5 2 0 2 10
100 87 16 5 5 5 5 5 5 0 0 0 0 2 0 0 0 0 2 0 0 0 0 0 0 0 0 0 0 0 0 0 0 0 0 2 5 0 0 0 0 0 0 1 3 22 100
100 27 5 5 5 5 5 5 0 0 0 0 5 0 0 0 0 0 11 14 5 0 0 0 0 0 2 0 0 0 0 0 0 0 0 0 3 5 0 5 3 4 2 0 5 3 5
14 5 5 5 5 4 4 5 5 5 4 0 0 0 0 0 4 2 5 5 5 0 1 3 0 0 0 0 0 0 0 0 0 4 4 6 5 6 5 5 5 5 5 4 5 23 64
5 5 5 5 5 5 5 5 5 5 5 0 0 0 0 5 2 5 5 4 1 5 5 5 0 0 0 0 0 4 5 5 1 1 5 5 5 5 6 7 5 5 5 93 100 98 99
5 3 4 5 5 5 5 5 5 5 5 0 0 2 2 5 6 61 7 5 0 5 5 4 4 0 0 0 0 4 5 32 5 5 6 7 6 58 5 5 5 5 6 48 100 61 18
5 5 99 7 5 5 5 5 5 5 4 5 2 0 5 5 5 59 5 5 5 5 5 5 5 4 0 0 2 5 5 18 6 5 27 5 5 65 5 5 46 34 6 5 4 5 6
5 46 100 32 5 5 5 9 5 5 4 13 1 1 5 5 5 5 5 5 5 5 5 5 4 1 3 2 5 5 5 16 51 5 5 5 6 16 40 48 42 100 85 5 4 22 13
6 100 100 32 5 5 5 8 70 70 13 7 0 0 5 5 5 5 5 5 3 5 5 5 5 6 5 5 5 5 5 6 5 5 5 70 83 55 6 44 88 100 54 77 74 91 6
100 8 34 5 5 5 11 83 14 40 19 5 0 5 29 32 5 11 53 38 32 55 5 5 6 5 5 22 58 13 15 90 11 7 5 82 99 54 100 100 30 99 100 31 5 4 5
100 100 89 69 14 5 12 100 95 5 5 5 15 65 74 29 5 5 5 5 5 27 7 5 5 5 94 5 24 74 8 5 6 14 5 6 22 64 90 95 99 100 100 100 100 100 23
100 100 100 97 33 22 98 100 5 5 5 5 42 91 62 36 13 50 36 7 5 56 41 25 15 25 41 100 63 38 8 5 5 6 5 8 38 63 62 98 100 6 0 1 5 5 49
100 100 100 100 100 96 100 100 49 12 5 42 79 96 98 99 88 15 23 37 87 35 99 79 62 100 67 96 100 100 10 5 5 8 49 5 96 80 92 99 36 5 4 5 5 58 5
100 100 100 100 100 100 100 100 100 100 100 100 100 100 100 100 100 72 81 40 63 10 39 45 77 47 5 92 91 81 39 34 91 24 100 100 30 42 98 85 93 61 5 5 5 48 93
100 100 100 100 100 100 100 100 100 100 100 100 100 100 100 100 100 73 39 70 67 5 8 5 5 26 9 99 96 94 48 19 72 68 97 82 100 96 100 68 68 14 5 5 5 20 11
100 100 100 100 100 100 100 100 100 100 100 100 100 100 64 86 99 97 100 95 88 10 92 100 100 100 98 100 93 74 100 25 5 15 17 19 75 83 90 98 62 9 5 35 5 6 98
100 100 100 100 100 100 100 100 91 100 100 100 100 95 87 100 100 100 100 100 98 87 54 96 91 100 100 89 100 84 100 100 90 98 86 72 100 47 12 5 4 17 94 10 99 59 6

GFSGBSN_prec_cloud_006.txt.gz
Cloud_Cover
53 100 100 96 100 100 100 100 100 100 100 100 100 100 100 100 100 100 100 100 100 96 6 1 8 100 100 100 100 100 100 99 100 100 100 100 84 85 66 18 4 0 0 0 0 0 0
100 36 100 98 100 100 100 100 100 100 100 100 100 100 100 100 100 100 100 100 90 44 56 73 33 3 38 78 100 100 100 100 96 85 99 78 36 14 0 0 0 0 0 0 0 0 0
100 100 100 100 100 100 100 100 100 100 100 100 100 100 100 100 100 100 100 100 100 32 36 12 5 5 5 2 54 22 0 0 0 0 0 0 0 0 0 0 0 0 0 0 0 0 0
100 100 98 100 100 100 100 100 100 100 100 100 100 100 100 100 100 100 100 100 88 90 53 7 5 3 0 0 0 0 0 0 0 0 0 0 0 0 0 0 0 0 0 0 0 0 0
99 100 100 100 100 100 100 100 100 100 100 100 100 100 100 100 100 100 100 100 72 7 0 0 0 0 0 0 0 0 0 0 0 0 0 0 0 0 0 0 0 0 0 0 0 0 0
100 100 100 100 100 100 100 100 100 100 100 100 100 100 97 100 100 100 66 4 0 0 0 0 0 0 0 0 0 0 0 0 0 0 0 0 0 0 0 0 0 0 0 0 0 0 0
100 100 100 100 100 100 100 100 100 100 100 100 100 100 28 5 6 0 0 0 0 0 0 0 0 0 0 0 0 0 0 0 0 0 0 0 0 0 0 0 0 0 0 0 0 0 0
100 100 100 100 100 100 100 100 100 100 100 100 93 6 0 0 0 0 0 0 0 0 0 0 0 0 0 0 0 0 0 0 0 0 0 0 0 0 0 0 0 0 0 0 0 0 0
100 100 100 100 100 100 100 87 65 100 41 17 2 1 0 0 0 0 0 0 0 0 0 0 0 0 0 0 0 0 0 0 0 0 0 0 0 0 0 0 0 0 0 0 0 0 0
100 100 100 100 100 80 100 100 99 100 77 5 0 2 0 0 0 0 0 0 0 0 0 0 0 0 0 0 0 0 0 0 0 0 0 0 0 0 0 0 0 0 0 0 0 0 0
100 100 100 100 100 100 100 48 55 100 17 0 0 0 0 0 0 0 0 0 0 0 0 0 0 0 0 0 0 0 0 0 0 0 0 0 0 0 0 0 0 0 0 0 0 0 0
100 100 100 100 100 100 76 96 100 89 2 2 0 0 0 0 0 0 0 0 0 0 0 0 0 0 0 0 0 0 0 0 0 0 0 0 0 0 0 0 0 0 0 0 1 0 0
100 100 100 100 100 100 81 97 93 30 0 5 5 0 0 0 0 0 0 0 0 0 0 0 0 0 0 0 0 0 0 0 0 0 0 0 0 0 0 0 0 0 0 0 0 5 1
100 100 100 100 100 84 100 61 4 0 0 5 5 0 0 0 0 0 0 0 0 0 0 0 0 0 0 0 0 0 0 0 0 0 0 0 0 0 0 0 0 0 2 4 4 5 1
100 100 100 100 100 10 67 2 5 5 4 5 5 2 0 0 0 0 0 0 5 5 0 0 0 2 0 0 0 0 0 0 0 0 0 0 0 0 0 0 3 5 5 3 1 5 5
100 100 100 100 100 100 20 4 5 5 8 9 5 5 0 0 0 0 0 4 4 5 0 0 0 1 0 0 0 0 0 0 0 0 0 0 0 0 0 1 5 5 6 5 5 5 74
100 100 100 100 67 19 22 16 62 39 5 5 4 0 0 0 2 39 16 5 5 0 5 5 4 0 0 0 0 0 0 0 0 2 4 1 0 5 5 5 5 5 5 40 57 13 88
100 100 100 100 98 27 5 5 27 5 5 5 3 0 0 0 1 6 15 5 4 5 2 5 5 5 5 0 0 0 0 0 4 5 5 5 5 12 5 6 6 10 90 41 93 79 53
100 100 99 84 87 10 5 5 5 5 5 9 5 1 0 0 0 5 5 5 5 5 5 5 5 4 4 0 0 0 2 4 5 5 8 5 5 5 5 11 7 68 12 5 5 5 16
69 99 93 48 48 5 5 5 5 5 5 10 5 1 0 0 0 0 5 5 1 0 0 4 12 0 0 0 1 4 0 5 5 5 12 5 5 44 88 5 5 62 55 31 5 54 50
39 66 100 50 72 7 5 5 76 5 5 8 5 0 0 0 0 3 5 5 5 0 4 0 2 3 0 1 5 5 5 41 14 5 5 5 5 5 5 5 5 76 5 5 5 35 26
12 100 100 33 5 5 30 100 100 5 5 5 5 4 0 5 0 5 8 5 5 5 56 5 5 5 4 5 5 5 12 27 5 26 76 70 96 73 100 10 16 76 5 6 26 10 9
24 6 10 5 5 5 100 100 51 5 5 5 5 5 5 4 5 2 27 5 5 37 5 5 5 5 14 5 5 5 14 5 5 5 5 4 7 32 44 38 27 100 13 24 6 88 59
100 100 32 5 5 10 100 100 13 5 5 11 5 5 5 3 4 5 5 19 5 5 43 58 5 29 5 5 15 93 57 49 46 5 5 22 37 58 49 91 84 100 4 5 5 5 3
100 100 100 91 60 13 100 100 5 6 5 5 14 5 31 59 33 5 5 5 11 7 25 7 72 5 22 52 41 67 49 15 10 48 6 5 92 81 95 94 18 100 5 5 5 9 5
100 100 100 100 100 100 84 27 6 5 5 5 5 5 5 54 7 80 100 100 75 13 11 82 86 100 28 91 8 6 83 25 91 86 100 92 16 5 91 88 96 5 5 4 5 5 5
100 100 100 100 100 100 100 100 100 90 46 49 39 67 58 80 96 100 100 100 7 67 21 22 5 5 5 97 88 6 12 85 50 99 92 98 97 73 100 84 8 6 5 10 30 13 69
100 100 100 100 100 100 100 100 100 100 100 100 100 100 100 100 100 100 100 43 6 5 17 6 11 69 98 98 65 47 49 6 41 31 59 37 80 58 68 97 67 55 100 100 93 76 86
100 100 100 100 100 100 100 100 100 100 100 100 100 97 83 99 97 100 100 73 96 99 5 5 7 5 58 88 92 77 99 100 98 100 100 88 99 73 13 8 5 100 80 67 96 28 5

GFSGBSN_prec_cloud_009.txt.gz
Cloud_Cover
2 2 68 100 100 90 47 98 100 100 100 100 90 41 67 94 100 94 100 100 74 91 100 100 90 9 1 12 98 100 100 100 100 96 100 100 100 100 97 100 100 100 100 89 92 30 1
3 5 100 100 71 60 100 100 100 100 100 100 100 100 100 100 97 13 74 100 22 86 22 0 4 0 1 0 46 94 100 37 100 75 99 100 93 83 100 97 81 86 40 2 0 0 0
5 63 42 100 85 100 100 100 100 100 100 100 100 100 100 100 99 100 100 100 100 47 98 91 76 21 5 4 0 0 0 1 5 66 29 67 36 99 100 99 96 6 0 0 0 0 0
100 99 100 100 100 100 100 100 100 100 100 100 100 100 100 100 100 100 100 100 95 74 96 73 20 34 5 0 0 0 0 0 0 0 0 0 0 0 0 0 0 0 0 0 0 0 0
100 100 100 100 100 100 100 100 100 100 100 100 100 100 100 100 100 100 100 100 98 53 42 5 5 1 0 0 0 0 0 0 0 0 0 0 0 0 0 0 0 0 0 0 0 0 0
100 100 100 100 100 100 100 100 100 100 100 100 100 100 100 100 100 100 98 53 16 26 4 0 0 0 0 0 0 0 0 0 0 0 0 0 0 0 0 0 0 0 0 0 0 0 0
75 100 100 100 100 100 100 100 100 100 100 100 100 100 100 100 100 100 99 45 50 3 0 0 0 0 0 0 0 0 0 0 0 0 0 0 0 0 0 0 0 0 0 0 0 0 0
69 100 100 100 100 100 100 100 100 100 100 100 100 100 93 82 84 13 25 13 2 0 0 0 0 0 0 0 0 0 0 0 0 0 0 0 0 0 0 0 0 0 0 0 0 0 0
99 100 100 100 100 100 100 100 100 84 98 100 100 96 98 14 5 4 1 0 0 0 0 0 0 0 0 0 0 0 0 0 0 0 0 0 0 0 0 0 0 0 0 0 0 0 0
91 100 100 100 100 100 100 100 100 100 100 94 92 80 6 0 0 0 0 0 0 0 0 0 0 0 0 0 0 0 0 0 0 0 0 0 0 0 0 0 0 0 0 0 0 0 0
72 100 100 100 100 100 100 99 96 94 91 38 5 9 3 5 4 0 0 0 0 0 0 0 0 0 0 0 0 0 0 0 0 0 0 0 0 0 0 0 0 0 0 0 0 0 0
100 100 100 100 100 100 100 100 100 53 100 44 5 14 5 1 5 1 0 0 0 0 0 0 0 0 0 0 0 0 0 0 0 0 0 0 0 0 0 0 0 0 0 0 0 0 0
100 100 100 100 100 100 90 100 84 85 33 6 23 5 2 2 0 0 0 0 0 0 0 0 0 0 0 0 0 0 0 0 0 0 0 0 0 0 0 0 0 0 0 3 0 3 0
100 100 100 100 100 100 100 81 100 98 70 5 5 5 1 0 0 0 0 0 0 0 2 0 0 0 0 0 0 0 0 0 0 0 0 0 0 0 0 0 0 0 0 4 0 16 15
100 100 100 100 100 100 100 96 100 88 75 5 19 5 3 5 3 0 0 0 0 0 0 0 0 0 0 0 0 0 0 0 0 0 0 0 0 0 0 0 0 0 0 0 1 31 73
100 100 100 100 100 100 100 100 100 43 52 1 41 50 5 5 2 1 2 0 0 0 0 0 3 0 0 0 0 0 0 0 0 0 0 0 0 0 0 0 0 0 0 2 5 24 80
100 100 100 100 100 100 80 100 97 88 6 6 53 32 5 2 0 3 4 5 5 5 0 0 3 4 5 5 3 0 0 0 0 0 0 0 0 4 4 5 5 5 3 5 15 5 9
100 100 100 100 100 100 100 100 100 24 51 33 22 17 5 0 0 5 5 5 5 5 3 5 3 5 5 5 5 0 0 0 0 0 0 0 2 5 5 12 90 10 5 5 83 20 5
100 100 100 100 100 100 100 100 100 60 100 64 31 39 5 0 0 0 4 5 5 5 5 5 5 9 9 5 3 0 0 2 0 3 4 1 5 5 5 5 9 6 0 5 5 10 77
100 100 100 100 100 100 100 100 99 85 100 77 36 6 2 0 0 0 0 4 1 5 5 5 4 5 5 5 3 0 0 0 0 2 3 0 1 5 5 1 3 5 1 1 5 80 55
100 100 100 100 100 97 94 100 100 12 83 84 42 5 5 0 0 0 0 0 0 5 5 5 5 0 1 0 1 4 5 2 5 5 5 5 5 44 5 5 18 8 5 68 5 5 96
100 100 100 100 100 100 100 100 44 5 5 5 4 5 5 5 0 0 0 0 0 0 5 5 5 5 5 5 5 5 5 5 3 5 5 5 5 5 48 5 5 21 5 5 5 5 6
100 100 100 100 100 100 100 100 41 11 5 4 2 7 66 5 5 0 1 0 0 0 5 5 5 5 5 8 5 5 27 5 2 3 3 1 4 55 21 81 69 100 6 6 63 33 93
45 100 100 100 100 99 100 100 44 35 39 6 5 5 5 0 4 5 5 3 0 0 2 5 5 5 5 21 13 8 5 5 5 5 5 40 36 56 32 92 68 100 9 48 71 74 5
98 38 96 100 100 90 100 100 25 81 99 93 13 5 16 58 45 5 5 5 5 5 5 5 5 5 5 5 5 5 5 5 5 7 8 5 45 90 96 92 47 93 5 5 5 94 5
100 100 82 100 100 91 76 55 65 5 31 80 62 5 5 6 5 5 5 5 5 5 5 5 15 44 55 32 5 5 5 20 53 14 12 8 7 18 90 98 98 5 5 5 5 7 78
100 100 100 100 91 51 14 9 5 5 5 5 5 5 5 15 5 5 5 5 19 16 5 5 10 6 8 85 72 7 5 6 34 9 34 100 100 100 100 100 16 11 5 5 29 88 94
100 100 100 100 100 100 97 76 56 80 42 31 5 6 5 39 32 5 2 0 2 5 5 5 5 10 96 99 40 58 81 48 56 56 98 66 96 100 91 100 91 22 67 81 87 100 94
100 100 100 100 100 100 100 100 100 100 100 100 98 75 92 93 62 94 100 93 29 29 6 5 5 25 6 73 78 82 96 86 81 96 100 91 100 80 96 32 76 93 100 78 62 58 5

GFSGBSN_prec_cloud_012.txt.gz
Cloud_Cover
9 0 6 32 62 74 78 60 100 100 100 100 100 100 100 100 100 100 100 95 23 72 61 20 1 0 6 0 6 48 100 90 100 61 33 90 100 81 100 100 63 99 100 96 96 93 21
0 2 24 21 50 64 76 26 100 100 100 100 100 100 100 100 100 100 100 96 62 18 5 10 77 70 8 0 0 0 0 0 20 64 97 83 85 96 90 98 87 97 52 100 90 2 22
0 0 4 94 98 35 5 97 100 100 100 100 98 100 100 100 100 100 19 15 5 24 64 100 13 0 0 2 0 0 0 0 0 2 70 34 56 10 12 28 89 5 3 5 0 4 0
0 12 3 89 100 57 100 100 100 100 100 100 100 100 100 100 40 6 13 21 6 34 54 8 5 30 8 4 0 0 0 0 0 0 0 0 0 0 6 29 1 0 0 0 0 0 0
5 5 24 100 93 100 100 100 100 100 100 100 100 100 100 22 62 75 88 99 100 100 92 94 84 14 3 0 0 0 0 0 0 0 0 0 0 0 0 0 0 0 0 0 0 0 0
95 60 98 100 100 100 100 100 100 100 100 100 100 100 100 100 100 100 100 100 100 99 97 89 53 2 0 0 0 0 0 0 0 0 0 0 0 0 0 0 0 0 0 0 0 0 0
100 80 72 100 100 100 100 100 100 100 100 100 100 100 100 100 100 100 100 90 85 100 66 2 0 0 0 0 0 0 0 0 0 0 0 0 0 0 0 0 0 0 0 0 0 0 0
86 100 76 100 100 100 100 100 100 100 100 100 100 100 100 100 100 100 94 51 34 8 1 0 0 0 0 0 0 0 0 0 0 0 0 0 0 0 0 0 0 0 0 0 0 0 0
100 96 100 100 100 100 100 100 100 100 100 100 100 100 85 55 98 54 17 7 5 0 0 0 0 0 0 0 0 0 0 0 0 0 0 0 0 0 0 0 0 0 0 0 0 0 0
100 68 100 100 100 100 100 100 100 100 100 100 100 30 22 49 23 5 6 4 0 0 0 0 0 0 0 0 0 0 0 0 0 0 0 0 0 0 0 0 0 0 0 0 0 0 0
100 100 100 100 100 100 100 100 100 94 93 81 83 78 41 5 5 1 0 0 0 0 0 0 0 0 0 0 0 0 0 0 0 0 0 0 0 0 0 0 0 0 0 0 0 0 0
100 100 100 100 100 100 100 87 82 83 82 17 55 21 6 5 4 0 0 0 0 0 0 0 0 0 0 0 0 0 0 0 0 0 0 0 0 0 0 0 0 0 0 0 0 0 0
100 100 100 100 100 97 100 100 97 91 41 51 62 24 22 27 5 0 1 0 0 0 0 0 0 0 0 0 0 0 0 0 0 0 0 0 0 0 0 0 0 0 0 1 0 2 0
100 100 100 100 100 100 100 100 98 71 42 83 7 52 75 64 5 5 5 0 0 0 0 0 0 0 0 0 0 0 0 0 0 0 0 0 0 0 0 0 0 0 0 4 3 5 4
100 100 100 100 100 100 99 100 40 92 93 62 89 93 96 37 5 4 0 0 0 0 0 0 0 0 0 0 0 0 0 0 0 0 0 0 0 0 0 0 0 0 0 0 0 37 5
100 100 100 100 100 100 100 100 98 100 100 85 10 73 68 8 5 3 0 0 0 0 0 0 0 0 0 0 1 2 0 0 0 0 0 0 0 0 0 0 3 5 1 3 0 20 5
100 100 100 100 100 100 100 100 73 100 100 8 34 21 42 10 5 5 2 4 4 5 5 5 0 0 4 5 5 5 0 0 4 0 0 0 0 0 0 0 3 4 5 5 4 5 14
100 100 100 100 100 100 100 100 100 7 98 12 48 7 55 6 17 5 8 5 5 15 5 5 5 5 5 5 3 0 0 0 0 0 0 0 0 0 0 0 0 0 5 5 3 2 5
100 100 100 100 100 100 100 100 100 100 42 28 76 5 5 5 5 0 5 5 5 10 18 5 5 36 5 5 3 0 0 0 0 0 0 0 0 3 1 1 4 1 0 5 5 23 86
100 100 100 100 100 100 100 100 100 57 46 82 69 34 45 5 5 0 0 4 5 5 5 4 5 2 2 0 0 0 0 0 1 0 0 0 0 0 1 0 5 5 4 6 27 94 100
100 100 100 100 100 100 100 100 100 100 84 77 50 12 23 5 5 5 0 0 2 5 0 0 3 5 5 5 5 1 2 0 0 1 0 0 3 5 5 5 5 8 6 9 41 22 93
100 100 100 100 100 100 100 100 100 100 100 96 40 90 11 5 22 57 1 0 0 0 0 3 5 5 5 5 5 5 2 5 1 0 2 2 5 5 5 5 5 24 5 5 5 5 5
100 100 100 100 100 100 100 100 100 100 90 76 96 87 13 72 9 5 5 5 0 0 0 0 3 5 5 6 5 5 5 5 5 5 5 5 5 59 58 13 41 38 5 5 5 5 5
100 100 100 100 100 100 100 100 100 100 97 66 57 25 5 8 5 3 4 10 5 5 5 5 5 4 0 0 1 5 1 5 5 5 5 86 21 59 60 48 31 100 5 5 5 27 5
100 100 100 100 100 100 100 100 100 100 95 40 64 21 7 59 43 5 37 62 5 5 5 5 5 5 5 0 0 5 3 5 5 5 12 5 52 75 95 98 81 98 18 5 5 54 53
100 100 100 100 100 100 100 100 100 100 100 60 29 5 5 10 5 5 19 66 5 5 5 5 5 0 0 0 1 0 5 5 5 21 6 6 6 7 96 100 100 93 5 5 26 9 11
100 100 100 100 100 100 100 100 100 100 100 99 72 68 40 52 5 5 5 5 5 5 5 10 4 2 0 37 70 5 6 46 6 5 5 92 97 98 100 100 55 16 6 74 99 100 91
100 100 100 100 100 100 100 100 100 100 100 100 100 97 67 32 22 10 5 5 5 5 5 26 26 29 94 100 59 98 14 5 5 12 5 5 25 33 84 100 63 5 74 93 84 99 72
100 100 100 100 100 28 100 100 100 100 100 100 89 38 12 32 5 5 5 5 5 4 6 6 91 100 6 71 55 85 49 93 94 98 29 58 79 53 91 56 98 72 100 100 71 24 6